Tracking 23893 objects as of 29-Nov-2021
HD Live streaming from Space Station
objects crossing your sky now

THORAD AGENA D DEB

Track THORAD AGENA D DEB now!
10-day predictions


NORAD ID: 4178
Int'l Code: 1969-082AW
Perigee: 720.1 km
Apogee: 827.0 km
Inclination: 69.8 °
Period: 100.2 minutes
Semi major axis: 7144 km
RCS: 0.1101 m2 (medium)
Launch date: September 30, 1969
Source: United States (US)
Launch site: AIR FORCE WESTERN TEST RANGE (AFWTR)

Note: This is SATELLITE DEBRIS
aabbcc
Your satellite tracking list
Your tracking list is empty




NASA's NSSDC Master Catalog

Two Line Element Set (TLE):
1 04178U 69082AW  21332.56323407  .00000394  00000-0  14657-3 0  9998
2 04178  69.8468 285.4333 0074815  50.4802 310.2906 14.37612270699687
Source of the keplerian elements: AFSPC